Theta_e
315 315 316 316 317 318 321 324 321 322 321 318 319 319 319 320 321 321 321 321 320 318 316 316 317 317 319 319 320 320 319 320 320 319 319 322 321 321 321 320 320 319 317 317 319 321 322 322 323 323 324 323 324 329 331 330 330 331 329 328 327 325 324 324 323 324 324 325 327 329 330 327 325 325 325 325 323 323 323 323 324 324 325 326 328 332 333 332 331 330 330 331 330 331 332 331 330
315 315 315 315 318 320 323 324 320 320 318 316 318 319 319 320 320 321 321 321 320 318 316 316 316 317 318 318 318 319 320 320 320 320 320 321 321 321 321 321 321 320 317 316 317 319 320 320 320 321 320 319 320 324 329 329 329 330 329 327 326 325 325 325 325 325 325 325 325 328 330 329 328 330 330 328 325 323 322 324 324 325 327 328 329 332 333 332 331 330 330 330 330 331 331 331 329
314 315 315 316 320 321 324 323 318 317 316 314 316 319 319 320 321 320 320 320 319 316 316 317 316 317 317 318 319 319 321 321 320 320 320 320 321 321 322 321 321 321 319 316 316 318 318 317 317 318 317 316 316 319 323 325 326 328 329 328 328 327 327 327 326 326 326 327 327 330 331 330 331 332 332 330 328 325 324 324 324 326 329 330 330 331 330 329 330 330 330 330 330 331 331 330 328
314 315 314 317 322 322 323 322 319 317 315 314 315 319 319 319 320 319 319 318 318 316 316 318 318 318 318 320 320 320 320 320 319 319 320 320 321 322 322 322 321 322 321 318 316 316 316 315 316 316 316 315 315 316 317 320 322 324 326 327 328 328 328 328 327 327 328 328 329 331 331 331 332 333 333 331 329 328 327 327 327 326 328 329 329 328 326 325 326 327 329 329 330 331 332 331 328
314 315 315 317 322 323 322 321 321 318 315 316 314 318 320 319 319 319 320 318 317 317 316 317 319 319 318 319 319 320 320 320 319 319 319 319 320 321 322 322 322 322 321 319 316 315 315 315 316 316 316 315 315 316 316 317 318 319 322 324 325 325 326 327 327 328 328 329 330 331 332 332 333 334 332 329 328 328 328 328 328 327 327 327 326 326 324 320 319 319 320 321 322 326 328 326 322
314 316 316 316 320 322 321 319 319 318 318 318 316 318 320 319 319 319 319 318 317 317 316 316 318 317 317 318 318 319 320 319 318 318 318 318 318 320 322 322 322 322 322 320 318 316 315 315 315 316 316 316 315 315 316 316 317 318 320 321 322 322 324 326 327 327 328 331 332 332 333 333 333 334 331 327 326 326 327 327 327 327 326 326 323 321 318 314 313 313 313 313 314 315 317 316 314
316 319 319 318 320 321 320 319 318 319 320 319 318 319 319 319 320 318 319 318 317 317 316 317 317 317 318 318 318 319 318 317 317 317 317 317 317 318 321 322 322 322 322 320 318 317 316 315 315 315 315 316 315 315 315 316 318 318 319 319 319 320 322 324 326 328 330 332 333 333 333 334 333 332 329 324 325 324 324 324 325 325 325 323 318 314 313 311 311 311 311 311 311 310 310 309 308
317 320 321 320 321 321 319 319 319 320 320 319 319 319 319 320 320 318 318 318 318 317 316 317 316 316 319 318 318 319 318 317 317 317 317 316 316 317 319 321 322 322 322 321 320 318 317 316 315 315 315 315 315 315 316 316 318 318 318 317 317 319 321 324 326 329 330 332 334 333 333 331 330 330 327 323 322 320 317 318 319 320 319 318 314 312 311 310 309 309 309 308 307 307 306 305 304
317 319 321 320 320 320 319 319 319 320 320 319 319 319 319 319 318 318 318 319 318 318 317 316 315 317 319 317 318 319 318 318 317 317 317 316 316 317 318 319 321 321 322 322 321 320 318 317 315 315 315 315 315 315 316 317 318 318 317 316 318 320 322 326 329 330 330 332 333 331 330 329 328 327 325 321 318 315 313 313 313 314 313 313 312 310 308 307 306 305 305 305 304 304 304 304 304
318 318 320 321 319 317 317 318 318 319 319 318 318 318 318 318 317 317 318 319 319 318 317 315 315 317 318 318 319 319 318 318 317 317 317 317 316 316 317 319 320 320 321 321 321 321 319 318 316 315 315 315 314 315 315 316 316 317 316 316 320 323 326 328 329 328 327 328 328 327 327 327 326 323 319 315 313 312 311 311 311 311 310 310 308 306 305 304 304 304 304 303 303 303 303 303 304
320 318 319 319 317 316 315 317 318 319 318 317 318 318 318 317 316 317 318 318 318 317 317 315 316 317 317 318 319 319 318 318 317 317 317 317 317 316 317 318 319 318 319 320 321 321 320 319 318 316 315 315 315 315 315 315 315 316 315 316 321 324 326 327 326 324 322 323 323 323 323 323 321 318 315 312 310 311 310 310 309 308 307 306 305 304 304 304 304 303 304 303 303 303 304 304 305
320 320 318 318 317 316 316 317 317 319 319 319 320 318 316 315 316 318 319 318 318 317 317 317 317 317 317 319 319 319 318 318 317 317 317 317 317 317 316 318 318 317 317 318 319 320 320 320 319 317 316 315 315 315 315 316 315 315 313 314 318 320 321 321 321 321 320 321 321 319 318 318 316 314 313 311 309 308 307 306 306 305 304 304 304 304 303 303 303 303 303 303 304 304 305 306 307
320 322 319 317 318 318 318 317 318 319 320 320 319 317 315 316 318 318 318 318 318 318 318 317 317 317 318 319 319 319 318 318 317 317 317 317 317 317 317 317 317 317 317 317 317 318 319 319 319 318 317 316 315 315 315 316 315 314 313 312 314 316 316 316 317 319 320 319 317 315 315 314 313 312 311 309 307 306 305 305 304 304 304 304 304 303 303 303 303 303 303 304 305 306 307 307 307
319 321 319 318 317 318 318 317 319 319 318 319 318 315 315 316 317 317 317 318 318 318 318 317 317 316 317 319 319 318 318 317 317 317 317 317 317 317 317 317 317 317 317 316 315 316 318 318 319 318 318 317 316 315 315 315 315 313 312 312 313 313 314 315 315 317 319 317 314 313 313 313 312 310 309 308 306 305 305 305 305 304 304 304 304 303 303 303 303 303 304 305 306 307 307 307 307
318 319 319 319 318 318 318 318 319 318 318 318 317 314 314 316 316 316 316 317 318 317 317 317 316 317 318 318 319 319 318 317 317 317 317 317 317 317 316 317 317 317 317 316 315 315 316 317 318 318 318 318 317 316 315 315 315 313 312 312 312 313 312 313 313 315 316 315 313 313 312 312 311 310 308 306 305 305 305 305 305 304 304 304 303 303 303 303 303 304 305 306 306 306 306 306 306
318 319 320 319 319 318 318 318 318 317 318 319 316 315 316 316 315 315 316 316 317 317 316 316 316 317 318 318 318 318 317 317 317 317 316 316 316 316 317 316 317 317 317 317 316 315 315 316 317 317 318 317 317 316 315 315 315 314 313 312 312 313 312 312 313 313 313 313 312 312 311 310 310 309 307 305 305 305 305 305 304 304 304 303 303 303 303 303 303 304 305 306 306 306 305 305 305
318 320 320 318 318 318 318 318 317 317 318 318 316 314 316 317 315 315 315 315 315 316 316 316 316 317 317 317 317 318 317 317 317 317 316 316 316 316 316 316 316 317 317 317 316 316 315 315 315 316 316 317 317 317 316 316 315 314 313 313 312 312 313 313 313 312 311 311 311 310 309 309 309 308 305 304 305 305 305 304 304 304 303 303 303 303 303 303 304 304 305 305 305 305 305 305 305
318 319 319 318 319 319 318 318 318 317 316 318 317 315 315 316 316 315 314 315 315 316 316 316 316 317 317 317 317 317 317 317 316 316 316 316 316 316 316 316 316 316 316 317 317 316 316 315 315 315 315 315 316 316 316 316 315 315 314 313 313 312 313 313 313 313 311 310 310 309 309 309 308 306 304 304 305 305 305 304 304 303 303 303 303 302 302 303 304 304 305 305 305 305 304 305 305
319 320 318 318 319 319 318 318 318 317 316 317 317 315 314 315 316 314 314 316 316 316 317 317 316 316 317 316 317 317 316 316 316 316 316 316 316 316 316 316 316 316 316 316 316 316 316 316 316 315 315 315 315 315 316 316 316 315 314 314 313 313 313 313 313 313 311 310 310 309 308 308 307 305 304 305 305 305 305 304 304 303 303 303 302 302 302 303 304 304 305 305 304 304 304 305 305
320 319 318 320 320 318 317 317 317 316 316 317 317 315 314 315 315 314 315 317 316 316 317 318 317 317 317 317 316 316 316 316 316 316 316 316 315 315 315 316 315 315 316 316 316 316 316 316 316 316 315 315 315 315 315 315 316 315 315 314 314 314 313 313 313 313 312 311 310 309 308 308 306 304 304 305 305 305 305 304 303 303 303 302 302 302 303 303 304 304 304 304 304 304 304 305 305
319 318 319 320 319 318 317 316 317 316 315 315 315 315 315 315 314 314 315 316 317 318 318 318 318 317 317 317 316 316 316 315 315 315 315 316 315 315 315 315 315 315 315 315 316 316 316 316 316 316 316 315 315 315 315 315 315 316 315 315 314 314 313 313 313 313 312 311 310 309 308 308 306 304 304 305 305 305 305 304 303 303 303 303 302 302 303 303 303 304 304 304 304 304 304 305 305
318 318 320 320 317 317 318 317 316 316 315 314 314 315 316 315 314 314 315 315 317 318 318 318 317 316 316 316 315 315 315 315 315 315 315 315 315 315 315 315 315 315 315 315 315 315 316 316 316 316 316 316 315 315 315 315 315 315 315 315 315 314 313 313 313 313 313 312 311 309 309 308 305 304 304 305 305 306 306 305 304 303 303 302 302 302 302 303 303 304 304 304 303 304 304 304 305
317 318 319 319 318 318 318 317 316 316 315 315 316 316 315 315 316 315 315 316 317 316 317 317 316 316 315 315 315 315 315 315 315 314 315 315 315 315 315 314 315 315 315 315 315 315 315 315 316 316 316 316 316 316 315 315 314 314 315 315 315 315 314 313 313 313 312 312 311 310 309 308 306 304 304 305 305 306 306 306 304 303 303 302 302 302 302 302 303 304 303 303 303 303 304 304 304
316 317 318 317 317 317 318 316 316 316 315 316 316 316 315 316 317 316 316 316 316 315 315 315 315 315 315 315 314 314 314 314 314 314 314 314 314 314 314 314 314 314 315 315 315 315 315 315 315 315 316 316 316 316 315 315 315 314 314 314 315 315 314 314 313 313 313 312 311 310 309 308 307 305 304 305 305 306 306 306 305 303 302 302 302 302 302 302 303 303 303 303 303 303 303 303 304
316 317 318 317 316 316 316 315 315 315 315 315 315 315 316 316 316 315 315 315 315 315 314 314 314 314 314 314 314 314 314 314 314 314 314 314 314 314 314 314 314 315 315 315 315 315 315 315 315 315 315 316 316 316 316 315 315 315 314 314 314 315 315 314 314 313 313 312 311 311 310 309 307 306 304 304 305 305 306 306 305 304 303 302 302 301 301 302 302 303 303 303 303 303 303 303 303
316 316 317 316 315 316 315 314 314 314 314 313 313 314 315 315 314 314 315 315 315 314 314 314 314 313 314 314 314 314 314 314 314 314 314 314 314 314 314 314 314 315 315 315 315 315 315 315 315 315 315 315 316 316 316 316 316 315 315 314 314 314 314 314 314 314 313 312 312 311 310 309 308 307 305 304 304 305 305 306 305 304 303 302 302 301 301 301 302 302 302 302 302 302 303 303 303
314 314 314 314 314 314 313 313 313 313 312 312 313 314 315 314 313 314 315 315 314 314 314 313 313 314 314 314 314 314 314 314 314 314 314 314 315 314 315 314 314 314 314 314 315 315 315 315 315 315 315 315 315 315 316 316 316 316 315 315 314 314 314 314 314 314 313 313 312 312 311 310 309 308 306 305 304 304 305 305 305 305 304 303 302 301 301 301 302 302 302 302 302 302 303 303 303
312 312 312 313 314 314 313 312 312 312 312 311 312 313 314 313 311 313 315 314 314 313 313 313 313 314 314 314 314 314 314 315 314 314 314 315 315 315 314 314 314 314 314 314 314 314 314 315 315 315 315 315 315 315 315 316 316 316 316 315 315 314 314 314 314 314 314 313 313 312 311 311 309 308 308 306 304 304 304 304 305 305 304 304 302 301 301 301 301 302 302 302 302 302 302 303 303
312 311 312 313 313 314 314 314 312 311 311 311 311 312 313 313 312 314 314 314 313 312 312 313 314 314 314 314 314 314 314 314 314 315 315 316 315 315 315 315 314 314 314 314 314 314 314 314 314 315 315 315 315 315 315 315 315 316 316 315 315 315 314 314 314 314 314 314 313 312 312 311 310 309 308 307 305 303 303 304 304 304 304 304 303 302 301 301 301 302 302 302 302 302 302 303 303
312 311 311 312 313 313 314 313 310 310 311 311 311 312 314 315 315 315 315 314 313 312 312 313 313 314 313 313 313 313 314 314 314 315 315 315 315 314 314 314 314 314 314 313 313 313 314 313 313 314 314 315 315 314 315 315 315 315 315 316 315 315 315 314 314 314 314 314 313 313 312 311 310 309 309 308 306 303 303 303 304 304 304 304 303 302 301 301 301 301 302 302 301 302 302 302 302
312 311 311 312 313 314 313 310 309 310 311 310 311 311 313 315 316 315 314 313 312 311 312 313 312 313 313 313 313 313 314 314 314 314 314 314 314 314 314 314 314 314 314 313 313 313 313 313 313 313 314 314 314 314 315 315 315 315 315 315 315 315 315 315 315 314 314 314 314 313 312 312 311 310 309 308 307 304 303 303 303 303 304 304 303 302 301 301 301 301 301 301 301 301 301 302 302
311 311 313 313 313 314 314 311 310 311 310 309 310 312 313 314 315 315 314 313 312 311 312 313 312 313 312 313 312 312 313 313 314 314 314 314 313 313 314 314 313 313 313 313 313 313 312 313 313 313 313 314 314 314 314 315 315 314 315 315 315 315 315 315 315 314 314 314 314 314 313 312 311 310 309 308 307 306 304 302 302 303 303 303 302 302 301 301 301 301 301 301 301 301 301 301 302
312 312 314 315 314 314 314 313 312 311 310 309 310 312 313 314 314 314 313 313 312 312 312 313 313 313 313 313 312 312 312 313 313 313 313 313 313 313 313 313 313 313 313 314 314 313 313 313 312 313 313 313 314 314 314 314 314 314 314 314 315 315 315 315 315 315 314 314 314 314 313 313 312 310 309 308 307 307 305 302 302 302 302 302 302 302 301 301 301 301 301 301 301 301 301 301 301
315 313 314 314 313 312 312 313 313 311 310 310 310 310 311 312 313 313 313 312 312 312 312 312 313 312 312 312 312 312 312 312 313 313 312 313 313 313 313 313 313 313 313 314 314 314 314 313 313 313 313 313 313 313 313 313 313 314 314 314 314 314 314 314 315 315 314 314 314 314 314 313 313 311 309 308 307 307 306 303 302 302 302 302 302 302 301 301 300 300 301 301 300 300 301 301 301
316 315 314 314 312 311 311 312 313 311 310 311 311 310 311 311 312 313 312 312 312 312 312 312 312 312 312 312 312 312 312 312 313 312 312 313 313 313 313 313 314 314 314 314 314 314 314 314 314 313 313 312 312 312 312 312 312 313 313 314 314 314 314 314 314 314 314 314 314 314 314 314 313 312 310 308 307 306 306 305 302 301 301 301 301 301 301 300 300 300 300 300 300 300 300 301 301
315 314 313 313 312 312 312 312 313 312 310 311 311 311 312 311 311 312 313 312 312 313 312 312 312 312 312 312 312 312 312 313 313 313 313 313 313 313 314 314 313 314 313 314 314 314 314 313 313 313 313 312 312 312 311 311 312 312 312 313 313 313 314 314 314 314 314 314 314 314 314 313 313 313 311 309 307 307 306 306 304 301 301 301 301 301 301 301 300 300 300 300 300 300 300 300 300
311 312 312 312 312 313 312 313 313 311 309 311 311 311 311 311 311 312 313 313 313 313 313 313 313 313 313 312 312 312 312 313 313 313 313 313 312 313 313 313 313 313 313 312 312 312 312 312 312 312 312 312 311 311 311 311 311 311 311 312 312 313 313 313 313 314 314 314 314 314 314 313 313 313 312 311 308 307 306 306 305 302 301 300 300 301 301 300 300 300 300 299 299 299 300 300 300
311 311 312 312 313 313 312 313 312 309 309 311 311 310 311 311 311 312 313 313 313 313 313 314 314 314 314 313 313 312 312 313 313 312 312 311 311 312 313 312 312 312 312 312 312 311 311 311 311 311 311 311 311 311 310 311 310 310 311 311 311 312 312 312 313 313 313 313 313 313 314 313 313 313 313 311 309 307 305 305 305 304 301 300 300 300 300 300 300 300 299 299 299 299 299 300 300
311 312 312 312 313 313 313 312 310 307 308 311 311 310 311 311 311 313 313 313 313 314 313 314 314 313 313 313 313 312 312 312 312 311 310 310 311 312 312 312 312 312 311 312 312 311 311 311 310 310 310 310 310 310 310 310 310 310 310 310 310 310 311 311 312 312 312 313 313 313 314 314 314 313 313 312 310 307 305 304 304 304 303 301 300 300 300 299 299 299 299 299 299 299 299 299 299
311 312 312 312 313 314 313 312 309 308 309 310 310 310 312 313 313 313 313 313 312 313 313 313 312 312 312 312 312 311 311 311 310 309 309 309 310 311 311 311 312 312 311 312 312 311 311 310 310 310 309 309 309 309 309 309 309 309 309 309 309 309 310 310 311 311 311 312 312 313 313 314 314 313 313 313 311 308 306 304 304 304 304 302 300 300 300 299 299 299 299 298 298 298 299 299 299
313 313 312 313 313 313 313 312 310 310 310 309 309 313 314 314 314 314 313 313 313 312 313 313 312 312 311 311 311 311 309 309 308 307 308 308 309 309 310 310 311 311 310 311 311 311 311 311 311 310 310 309 309 309 309 308 308 308 308 308 308 308 308 309 309 310 311 311 312 312 313 313 314 314 313 313 312 310 307 305 303 303 304 303 301 300 299 299 299 299 299 298 298 298 299 299 299
314 314 312 312 312 312 312 312 310 311 312 310 310 314 316 314 314 315 315 315 316 315 314 314 313 312 311 311 311 309 308 308 307 307 308 309 308 308 309 309 310 309 309 309 310 310 311 311 311 311 310 310 309 309 308 308 308 308 308 307 308 308 308 308 309 309 310 310 310 311 312 312 313 313 313 313 312 311 308 306 304 303 303 303 302 300 299 299 299 299 299 298 298 298 298 299 299
314 313 312 310 310 311 311 312 311 312 313 310 309 313 316 315 315 315 315 316 316 316 315 315 314 312 311 310 309 308 308 306 305 307 308 308 308 308 308 308 308 308 308 309 310 310 310 311 311 311 310 310 309 309 308 307 307 307 307 307 307 307 308 308 308 308 308 309 309 309 309 310 311 311 312 312 312 311 309 307 305 303 302 302 303 302 300 299 299 299 298 298 298 298 298 298 299
314 313 311 310 310 312 311 311 311 311 312 311 310 312 314 315 315 315 315 315 315 315 315 315 313 311 310 309 308 307 306 304 305 307 307 307 307 307 306 306 306 307 307 309 310 310 310 310 310 310 310 309 309 308 308 307 307 306 306 306 306 306 306 307 307 307 307 307 307 308 308 308 308 309 310 311 311 311 310 308 305 303 301 301 302 302 302 300 299 298 298 298 298 297 297 298 298
313 311 309 309 310 311 310 311 311 310 310 312 312 311 314 316 315 313 313 313 315 315 314 314 312 309 309 308 306 305 304 303 305 306 306 306 306 305 305 305 306 306 307 308 309 310 309 309 309 309 309 308 308 308 307 306 306 305 305 305 305 306 305 305 306 306 306 306 306 306 306 307 307 307 308 309 309 309 309 309 306 303 301 300 300 301 302 301 299 298 298 298 297 297 297 298 298
310 309 308 309 309 309 309 310 311 310 311 314 314 312 315 317 315 313 312 313 315 315 313 314 312 308 307 306 304 304 304 304 305 305 305 304 304 304 305 305 306 306 307 307 308 309 309 308 308 308 308 308 308 307 306 306 305 305 304 304 304 304 304 304 305 305 305 305 305 305 305 306 306 306 306 307 307 308 308 308 307 304 301 300 299 300 301 301 300 298 298 298 297 297 297 297 297
307 309 310 311 310 308 309 309 309 312 315 316 314 313 314 316 317 315 313 312 312 313 313 315 313 309 306 305 303 303 304 304 304 304 304 304 303 303 304 305 305 306 307 307 308 308 308 307 307 308 309 308 308 307 306 305 304 304 304 304 304 304 304 304 304 304 304 304 304 304 304 304 305 305 305 305 305 306 306 306 306 305 302 300 299 299 300 301 300 299 298 297 297 297 297 297 297
308 310 310 311 312 311 310 310 310 314 317 315 312 312 313 314 316 314 312 310 309 311 313 312 311 308 305 304 302 303 303 303 303 303 304 304 304 304 304 305 304 305 306 306 306 306 306 306 306 307 308 308 308 308 306 305 303 303 303 303 303 303 303 303 303 303 303 304 304 303 303 303 304 304 304 304 305 305 305 305 304 304 302 301 300 299 299 300 300 300 298 297 297 297 297 297 297
308 309 309 312 314 314 315 314 313 315 317 312 308 311 312 314 314 313 313 313 310 310 310 308 307 306 304 303 301 301 302 302 302 301 302 302 302 302 303 303 303 303 304 304 304 304 305 305 305 306 307 307 307 307 307 306 305 304 302 302 302 302 302 302 302 303 302 303 303 303 303 303 303 303 303 303 304 304 304 304 304 304 302 301 300 298 298 299 299 299 299 297 297 296 297 297 297
308 309 311 313 315 316 317 316 314 315 315 309 307 310 312 313 314 313 314 314 310 307 305 304 304 304 303 302 300 300 300 301 301 300 300 300 300 300 300 301 301 301 302 302 302 302 303 304 304 304 305 305 306 306 306 306 305 305 304 303 302 301 301 301 301 302 302 302 302 302 302 302 303 303 303 303 303 303 303 303 303 303 302 301 300 299 298 298 299 299 299 298 297 296 297 297 297
308 311 312 313 315 317 317 317 315 316 315 310 307 311 313 314 313 312 312 312 307 304 303 303 302 302 301 300 299 299 298 299 299 299 299 298 298 299 299 300 300 300 300 300 301 301 302 303 303 303 304 304 304 305 305 305 305 305 304 304 303 302 301 301 300 300 301 301 301 301 301 301 302 302 302 303 303 303 302 302 302 302 302 301 300 299 298 298 298 298 298 298 297 296 296 296 296
309 309 310 311 314 316 316 316 316 315 315 313 311 312 314 314 313 312 311 308 304 303 303 302 302 301 300 299 298 298 297 297 297 298 298 298 299 299 299 299 299 299 299 300 300 300 301 301 301 302 302 302 303 303 304 304 303 303 304 304 304 303 303 302 301 301 300 300 300 300 301 301 301 301 301 302 302 302 302 302 302 302 302 301 301 300 299 298 298 298 297 298 297 297 296 296 296
309 308 311 312 312 313 314 315 314 313 314 315 314 314 314 313 314 314 310 305 303 303 302 302 301 300 299 298 297 297 296 295 296 296 297 297 298 298 298 299 298 299 299 299 299 300 300 300 300 300 301 301 302 302 302 302 302 302 302 303 303 303 303 303 303 302 301 301 300 300 300 300 301 301 301 301 301 301 301 301 302 301 301 301 301 301 300 299 298 297 297 298 298 297 296 296 295
310 310 312 312 311 311 311 313 314 314 314 315 314 314 313 313 315 314 310 306 304 303 301 301 300 299 299 297 296 295 295 294 294 295 295 296 297 297 298 298 298 298 298 298 299 299 299 299 299 300 300 300 300 301 301 301 301 301 301 301 302 302 302 302 302 302 302 302 301 300 300 299 300 300 300 300 300 300 300 300 301 301 301 301 301 301 301 300 299 298 298 298 298 298 297 296 295
309 310 310 311 312 313 312 313 314 315 316 316 314 314 313 313 314 314 312 308 305 303 301 300 299 298 298 296 296 294 294 293 293 294 294 294 295 295 296 296 296 297 297 297 297 298 298 299 299 299 299 299 299 299 300 300 300 300 300 300 300 300 301 301 301 302 302 302 301 301 300 299 299 299 299 299 299 299 300 300 300 300 301 301 301 301 301 301 301 300 299 299 299 299 298 297 296
307 308 308 309 311 312 313 313 313 315 315 315 315 314 314 314 314 313 312 307 305 303 301 299 298 297 296 295 295 294 293 293 292 292 292 292 292 292 293 294 294 295 295 296 296 296 297 297 298 298 298 298 298 298 298 298 298 298 298 298 298 299 299 300 300 301 301 301 301 301 300 299 299 298 298 299 299 299 299 299 299 299 299 300 300 301 301 301 301 301 301 300 300 299 298 298 297
309 309 309 309 309 310 312 312 313 314 315 315 316 315 315 314 313 311 309 305 304 303 300 298 297 296 295 294 294 293 292 292 292 292 292 292 293 293 293 293 293 294 294 294 295 295 296 296 296 296 296 297 297 297 297 296 296 297 297 297 297 297 298 298 299 299 300 300 300 301 300 300 300 299 298 298 298 298 298 298 299 299 299 299 299 300 300 300 300 301 301 301 301 300 299 298 298
311 310 310 310 310 311 312 313 314 314 314 315 315 315 316 312 308 307 305 303 303 301 299 298 296 295 295 294 293 292 292 292 292 293 294 294 294 295 295 295 295 296 296 296 296 296 296 295 295 295 295 295 295 295 295 295 295 296 296 296 297 297 297 297 297 298 298 299 299 300 300 300 300 300 300 299 298 297 297 298 298 298 298 298 298 299 299 299 300 300 300 301 301 301 301 299 298
Wind_Speed
8 7 5 4 3 3 3 4 3 1 2 4 2 3 1 0 4 4 4 2 2 1 3 6 5 7 6 2 4 7 6 7 6 4 4 3 3 1 4 6 8 10 13 18 20 21 21 22 21 20 20 19 18 19 19 17 16 15 15 15 14 13 12 12 12 11 11 11 11 10 9 9 9 9 9 9 10 10 9 8 7 7 6 6 5 4 5 4 5 6 6 6 6 6 5 4 3
8 7 5 4 2 2 1 3 4 1 3 4 1 2 2 1 2 3 4 5 4 4 5 5 7 10 10 7 7 8 8 10 10 10 11 12 10 6 5 6 8 10 12 17 20 21 22 22 22 21 20 19 18 19 20 19 17 17 16 16 15 14 14 13 12 12 12 12 12 10 9 9 8 8 8 8 9 10 10 9 9 8 7 6 6 5 6 5 5 6 6 6 6 6 6 6 6
7 6 5 4 2 2 1 1 3 3 3 4 2 1 1 2 2 4 5 6 6 8 7 4 7 10 10 9 7 7 6 9 12 14 15 15 12 9 7 8 8 10 11 15 20 21 22 21 21 21 20 20 19 19 20 20 19 18 18 17 16 16 15 14 14 13 12 12 11 10 9 9 9 8 8 8 8 8 8 9 10 9 8 7 8 8 8 7 6 6 7 7 7 7 8 7 7
5 5 4 2 2 2 1 2 2 3 4 3 3 2 1 3 3 4 5 6 9 11 6 3 5 7 8 8 5 6 8 9 10 9 10 11 9 8 7 10 10 10 12 14 18 21 21 21 20 20 20 19 19 19 19 20 20 19 19 19 18 17 16 16 15 14 12 11 10 10 10 10 10 10 9 9 8 8 7 8 9 10 10 10 11 11 10 9 8 8 8 8 8 8 8 9 10
4 3 3 3 3 1 0 2 1 3 3 2 3 2 1 2 4 7 7 8 11 10 6 5 3 3 7 9 5 4 7 8 8 8 8 10 8 7 7 9 10 11 12 14 17 20 21 20 20 21 21 20 19 19 19 19 19 19 19 19 18 18 17 17 16 14 11 10 10 11 11 12 12 11 11 11 11 10 8 8 9 9 10 11 11 12 11 11 10 10 11 11 11 10 10 11 12
2 1 1 3 2 0 1 2 2 4 2 2 6 5 3 4 5 9 11 10 9 7 6 6 5 4 5 8 9 8 9 9 9 11 11 11 9 8 8 9 10 12 12 14 17 19 21 20 20 21 21 21 20 19 19 18 18 18 19 19 19 18 18 17 16 13 11 11 12 13 13 14 14 13 13 14 13 12 11 10 10 10 11 11 12 12 12 12 11 11 11 11 11 11 12 12 12
3 2 2 3 2 1 3 4 4 5 1 0 6 7 9 8 6 9 11 8 3 3 4 7 6 5 5 6 8 9 11 11 12 13 13 12 10 9 8 9 10 12 13 14 16 19 21 20 20 21 21 22 21 20 19 18 17 18 18 19 19 18 17 16 15 14 14 14 14 15 15 15 16 16 16 16 15 14 13 13 12 13 13 14 13 13 12 11 10 10 10 10 10 10 10 10 10
4 3 1 2 1 1 3 4 4 4 1 1 6 9 12 12 9 9 10 5 3 3 4 7 5 3 5 4 6 9 12 12 11 12 11 11 10 10 9 9 10 12 14 14 15 17 19 20 21 21 22 22 21 21 19 19 18 18 18 18 18 18 16 15 15 16 17 17 17 17 17 18 18 18 18 17 16 15 14 14 14 14 14 15 14 13 12 11 9 8 8 8 8 8 7 7 6
5 3 2 2 1 2 3 4 4 4 4 4 7 11 14 13 9 9 9 6 5 5 5 7 6 4 4 4 8 11 12 11 10 10 9 9 9 10 9 10 10 12 14 14 15 16 18 20 22 22 23 22 22 21 20 20 20 20 19 19 18 17 16 16 17 18 19 19 18 19 20 19 19 19 20 18 17 15 14 13 13 13 13 13 13 12 10 9 8 7 7 7 6 5 3 2 1
4 2 2 1 1 3 4 4 3 2 4 4 8 14 14 11 7 7 8 6 5 4 5 6 8 10 7 7 11 10 9 10 9 9 9 8 7 9 10 10 11 12 14 15 16 16 17 19 21 23 23 23 22 21 21 21 21 21 20 19 19 18 18 19 20 20 21 21 20 20 21 20 19 20 19 16 14 13 12 12 11 12 11 11 11 9 8 7 7 6 6 4 2 1 0 0 0
3 2 2 2 2 4 3 3 4 3 3 5 9 12 10 7 5 5 6 6 6 5 6 4 5 9 9 9 11 10 11 11 8 8 9 9 8 8 10 11 12 13 14 15 16 17 18 19 20 22 23 23 23 22 22 22 21 21 21 20 19 20 21 21 21 21 21 21 21 20 21 20 20 19 18 13 10 10 11 10 10 10 10 9 8 7 6 6 5 5 3 2 2 1 1 1 1
3 2 2 3 2 3 3 4 5 6 6 5 4 3 2 3 3 3 4 5 5 6 7 6 4 4 6 6 9 14 15 11 8 8 9 10 9 9 10 12 13 13 14 15 16 17 18 19 20 22 22 23 23 23 22 22 22 22 22 20 19 20 21 21 21 21 20 20 21 21 20 20 20 18 15 11 9 10 10 9 9 9 9 8 6 6 5 5 5 4 4 4 3 2 2 2 2
3 2 3 2 1 2 2 4 4 6 6 2 1 2 2 2 4 3 3 5 4 5 5 6 7 5 6 8 13 17 13 10 9 10 11 11 10 10 11 12 14 15 15 16 17 18 18 19 21 22 22 23 23 23 23 23 23 22 22 21 20 20 20 20 20 20 20 20 21 20 19 18 18 15 12 10 9 10 10 9 9 8 8 7 6 6 5 6 6 6 5 5 4 3 3 2 2
5 4 3 1 0 2 2 4 3 4 4 1 0 3 4 3 5 3 3 7 5 4 6 5 7 7 7 9 11 10 8 12 14 15 16 13 11 11 12 13 15 17 17 17 18 18 19 20 22 22 23 23 24 24 24 24 24 23 22 21 21 21 21 21 20 20 21 21 20 20 18 17 16 13 10 10 10 10 10 9 9 8 7 7 7 7 7 7 7 6 6 5 4 4 3 3 3
6 6 2 1 2 2 3 3 2 3 3 1 2 4 4 6 5 4 4 8 7 8 10 7 7 6 4 5 7 8 13 19 19 21 20 16 15 13 13 14 16 18 18 19 19 19 20 21 23 23 24 24 25 25 25 25 24 24 24 23 22 22 22 22 22 22 22 22 21 20 19 17 16 14 12 11 12 11 11 10 10 9 8 8 8 9 9 8 7 7 6 5 4 4 3 3 3
7 6 1 2 2 2 3 2 1 4 3 1 3 4 4 7 5 4 6 8 11 15 14 9 11 12 11 14 17 19 22 24 23 23 22 21 20 17 16 16 17 19 20 21 21 21 21 22 23 24 24 25 26 26 26 26 25 25 25 24 24 23 23 23 23 23 23 22 22 20 19 17 16 15 14 13 13 13 12 11 10 10 10 10 10 10 10 9 8 7 6 5 4 4 3 4 4
7 5 2 3 3 3 3 4 4 2 3 2 4 4 4 6 5 6 8 10 14 18 18 17 17 21 24 25 26 26 26 25 24 24 23 24 23 22 21 19 20 20 21 22 22 23 23 24 24 24 25 26 26 27 27 27 27 26 26 26 26 25 24 24 24 24 23 22 21 20 18 18 17 16 15 15 15 14 13 12 11 10 10 11 11 11 10 9 8 7 6 6 5 4 4 4 5
6 3 3 4 3 4 4 7 6 1 5 5 3 4 6 7 6 7 9 10 14 18 23 24 24 27 29 28 26 25 24 23 23 23 23 24 24 25 24 23 23 22 22 23 24 25 25 25 25 26 25 25 26 27 27 27 27 27 28 28 27 27 26 25 26 25 24 23 21 20 19 19 18 17 17 17 15 14 13 13 12 11 11 11 11 11 10 9 8 7 7 6 5 5 5 5 5
5 2 3 5 4 3 5 8 7 5 8 7 7 7 7 9 9 7 9 11 12 16 21 20 22 26 26 24 21 20 22 23 22 23 24 25 25 25 26 26 25 25 24 24 24 26 27 27 26 26 26 26 27 27 28 28 28 29 29 29 29 28 28 27 27 27 25 24 22 20 20 20 19 19 19 17 16 15 14 14 13 13 13 12 12 11 11 10 9 9 8 7 6 6 6 5 5
5 4 5 7 5 3 6 10 10 11 12 9 9 9 9 13 12 6 7 12 13 15 19 17 17 21 22 21 21 21 23 24 24 24 26 27 27 26 26 27 26 25 25 25 26 27 27 28 27 27 27 27 28 28 28 29 29 30 31 31 30 30 30 29 29 28 27 25 22 22 22 20 20 20 20 19 18 17 17 16 15 15 15 14 13 13 12 11 10 10 9 8 7 6 6 6 5
4 6 7 5 3 4 8 13 14 15 14 11 9 10 11 12 12 10 8 9 13 16 16 17 20 22 22 22 25 27 27 28 28 28 28 29 28 27 27 26 26 25 24 26 28 28 27 27 28 28 29 29 30 30 29 30 30 31 32 32 32 32 32 31 31 30 28 26 24 24 24 21 21 22 22 21 20 19 19 18 18 17 17 16 15 14 13 12 12 11 11 9 8 7 6 6 5
4 9 12 7 3 5 8 10 12 13 12 10 8 9 11 11 13 15 12 8 15 21 17 20 28 30 28 28 30 33 31 31 30 30 29 29 28 27 27 26 26 26 24 25 26 27 26 27 29 30 31 31 31 31 31 31 32 33 33 33 33 33 33 33 32 32 30 28 26 26 25 23 23 25 25 24 23 21 21 20 19 19 18 17 16 15 15 14 14 13 12 11 9 8 7 6 5
7 9 12 11 8 10 10 8 10 11 9 9 10 13 14 13 15 17 18 18 27 34 28 29 35 35 34 33 34 34 32 30 29 29 28 28 27 27 26 26 26 25 24 24 25 25 26 27 29 31 32 32 33 33 33 33 33 34 34 33 34 34 34 34 34 33 32 30 29 27 26 26 26 27 27 27 25 24 22 22 21 20 19 19 18 18 17 16 16 14 13 12 10 9 7 6 5
9 8 7 10 11 14 15 11 12 14 12 14 15 18 19 17 16 17 17 21 34 41 36 36 36 33 32 31 30 30 30 29 29 28 27 27 27 26 25 25 26 25 25 25 25 25 26 26 28 31 32 33 34 34 35 35 34 34 35 35 35 35 35 35 35 34 34 32 31 29 28 28 27 28 29 29 28 26 25 23 23 22 22 21 20 20 19 18 17 16 15 13 12 10 8 7 6
11 12 8 7 9 14 16 14 16 17 17 19 18 18 26 24 18 22 22 25 35 37 32 31 29 27 27 28 28 28 29 29 28 28 28 27 26 26 26 25 26 26 25 25 25 25 25 26 28 30 32 33 34 35 36 37 36 35 36 36 36 36 36 36 36 36 35 34 33 32 31 30 29 29 30 30 30 28 26 25 24 24 24 23 22 22 20 19 19 18 16 14 13 11 9 8 7
9 11 8 7 10 13 14 15 16 17 18 17 14 18 28 23 15 20 23 21 22 20 22 24 24 27 28 29 29 28 29 27 26 27 28 29 28 28 26 25 26 26 25 25 26 26 25 27 28 30 32 33 34 36 37 37 37 36 37 37 38 37 37 37 37 37 36 36 35 34 33 32 31 30 31 31 31 30 28 27 26 26 25 25 24 23 22 21 20 19 17 15 14 12 11 10 8
3 6 9 13 15 15 15 15 15 16 17 16 13 18 25 17 9 11 10 10 13 15 22 26 27 31 30 28 27 26 27 26 26 28 31 32 33 33 30 28 29 27 27 28 27 26 26 27 29 30 32 33 35 37 38 37 37 37 37 38 39 39 38 38 37 37 38 38 38 36 35 34 33 32 32 33 33 32 30 29 28 27 27 26 25 24 23 22 21 20 19 17 16 14 13 11 9
6 8 10 16 16 16 17 16 16 14 11 12 14 16 22 11 5 17 20 19 20 20 24 28 29 31 28 26 25 26 29 31 33 34 36 36 36 36 34 34 34 33 33 31 29 29 28 28 29 30 32 34 35 37 37 37 37 38 38 39 39 40 39 39 39 39 40 40 39 38 37 36 35 34 34 34 34 34 32 31 30 29 28 27 26 25 24 24 23 22 20 19 18 16 14 12 10
6 7 9 14 13 16 17 14 13 11 6 6 9 9 15 9 11 25 29 25 24 22 25 28 28 28 28 29 30 32 36 37 38 38 37 35 35 36 35 35 36 36 36 34 32 32 31 30 30 30 32 34 35 36 37 37 37 38 39 39 40 41 41 41 41 40 40 40 41 40 39 38 38 37 36 35 35 35 34 33 32 30 29 28 27 26 26 25 24 23 23 21 20 17 15 14 11
7 4 4 10 11 11 8 5 4 5 5 7 8 5 10 10 15 21 20 21 23 21 22 22 22 28 31 34 38 40 41 39 38 38 37 36 36 35 35 34 33 33 34 34 34 33 32 32 31 31 32 34 34 36 38 38 37 38 39 40 42 42 42 43 42 41 41 41 42 41 41 41 40 39 38 37 36 36 36 35 33 32 31 29 28 28 27 27 26 26 25 23 21 19 17 15 13
6 3 2 5 8 5 2 5 4 3 5 11 8 7 10 13 18 15 13 17 18 17 21 20 22 30 35 37 40 42 42 40 39 38 38 38 37 35 32 30 28 27 27 28 28 28 29 32 32 32 32 33 35 37 37 37 37 38 39 41 42 43 43 43 44 44 43 42 42 43 43 43 42 42 41 39 38 37 37 37 36 34 33 31 31 30 29 29 28 28 26 24 22 20 19 17 15
3 4 4 4 5 7 3 3 6 7 4 12 9 7 8 13 18 15 13 17 16 17 27 29 27 32 36 37 38 41 42 43 42 39 38 38 35 33 29 26 24 21 21 22 22 22 24 27 29 31 32 33 35 36 36 37 38 39 40 42 43 43 43 44 45 45 44 43 43 44 44 44 44 43 42 41 39 39 38 38 38 37 35 33 33 32 32 31 30 29 28 25 23 22 21 19 17
4 4 7 6 7 8 6 4 7 7 3 9 12 8 8 10 16 20 20 22 20 21 31 35 32 32 33 31 31 35 36 39 42 38 36 36 32 30 27 24 21 18 17 17 18 19 20 22 24 27 29 31 33 35 37 38 39 40 41 43 44 44 44 45 46 46 46 45 45 45 45 45 45 45 44 42 41 40 39 39 39 38 37 36 35 34 34 33 32 31 29 27 26 24 22 20 19
4 4 6 6 8 8 8 7 3 5 6 8 11 11 12 14 19 28 30 28 24 24 32 34 31 31 31 29 30 31 27 33 39 32 30 32 29 27 25 22 19 16 15 14 16 17 18 20 22 24 26 29 32 34 37 39 40 41 42 44 45 45 46 46 46 47 47 47 47 46 46 45 46 46 45 44 43 42 40 40 40 40 39 38 38 36 36 35 34 32 30 29 28 26 24 22 20
9 7 6 6 7 8 9 9 5 3 7 9 9 13 15 15 18 26 32 30 25 26 30 30 29 31 34 33 30 26 23 28 30 25 26 28 25 23 22 20 17 14 13 12 13 14 16 18 20 22 25 27 30 32 36 38 40 42 44 45 46 47 48 48 48 47 48 49 49 48 46 46 46 47 47 46 45 44 42 41 41 41 41 41 40 39 39 37 35 34 33 31 30 28 27 24 22
10 7 8 10 9 9 12 13 10 7 9 12 14 15 14 14 15 20 28 30 28 27 25 26 28 32 32 28 22 20 23 25 24 25 26 24 21 20 18 17 14 12 11 11 12 14 15 16 18 20 22 25 27 30 34 36 39 42 44 46 46 47 49 49 49 49 50 50 50 50 48 48 48 47 47 47 47 46 44 43 42 42 43 44 43 42 41 39 37 36 35 33 32 30 28 26 24
5 6 8 10 10 12 14 15 10 3 5 10 13 17 16 14 14 19 28 31 27 24 21 23 30 30 21 16 17 20 23 26 25 23 21 20 20 19 16 13 10 9 10 12 14 16 17 17 18 19 21 23 25 29 31 34 37 40 42 44 45 46 48 48 50 51 52 52 51 51 51 50 49 49 48 48 49 48 46 46 44 44 45 45 44 43 42 40 38 37 36 35 33 32 30 29 27
9 8 9 9 9 13 12 14 9 4 2 7 9 15 16 17 18 20 25 24 20 21 21 23 25 23 16 13 19 23 25 26 23 21 21 22 20 16 14 11 8 8 8 10 13 14 16 17 19 20 21 23 24 27 30 32 35 37 39 40 42 44 46 47 49 51 52 53 53 52 52 52 51 50 50 50 50 50 49 48 47 46 46 46 45 44 43 41 40 39 38 37 35 34 33 31 29
9 7 6 7 9 11 10 9 3 4 2 7 9 13 14 19 22 20 18 14 17 24 23 17 15 17 19 19 20 23 26 24 21 22 23 22 18 14 13 12 9 7 6 6 8 10 13 15 16 18 20 22 23 26 28 30 32 34 36 38 40 42 43 45 47 50 51 52 53 53 53 53 53 53 52 51 51 51 51 50 48 46 46 46 46 45 44 43 42 41 40 39 38 36 35 33 30
7 6 6 8 9 8 7 4 2 3 5 7 11 12 12 16 14 12 10 9 17 20 15 13 14 17 19 19 18 20 22 22 21 23 24 22 20 18 17 17 14 10 7 7 8 11 13 14 16 17 18 20 21 23 24 27 30 31 33 35 37 39 41 43 45 46 49 51 53 54 54 54 54 54 53 52 52 52 52 51 49 48 46 46 46 46 46 46 45 44 42 41 40 39 38 35 32
6 6 7 10 11 10 11 6 6 9 6 3 9 9 7 5 2 1 1 7 13 7 5 9 11 12 14 15 17 19 21 22 23 25 25 24 24 24 22 20 18 14 12 11 11 12 14 15 16 17 18 19 19 19 20 24 27 28 31 33 35 38 40 41 43 45 47 50 52 53 53 54 54 55 54 53 52 52 52 51 50 49 48 47 47 47 47 47 47 46 45 44 43 41 40 37 34
6 6 10 12 13 13 14 10 7 7 3 3 8 9 3 1 1 3 5 9 11 4 5 7 7 9 12 17 19 21 23 23 25 27 27 27 27 26 26 24 21 19 16 14 12 12 13 14 14 14 16 18 19 18 17 20 24 26 28 30 32 35 37 38 40 42 44 45 46 48 49 50 52 53 54 53 52 52 52 52 51 50 49 48 47 48 48 48 48 47 46 45 44 43 41 39 37
6 2 4 7 9 9 9 9 5 4 4 2 3 5 5 5 6 5 6 12 11 8 7 8 12 11 15 21 19 19 22 23 27 31 31 29 28 28 28 27 25 23 20 17 14 13 13 12 12 11 12 14 15 15 14 16 20 23 25 28 30 32 34 36 37 38 39 40 42 43 44 45 47 49 51 53 52 52 52 53 53 52 51 49 48 48 49 49 48 48 46 45 44 43 43 42 39
3 1 1 2 3 4 4 4 4 4 6 3 3 4 7 7 4 7 8 9 7 6 7 9 12 13 16 19 18 20 23 28 33 36 34 33 32 31 31 30 28 25 22 20 18 17 16 15 14 13 12 12 12 12 11 12 15 18 21 24 27 29 31 34 35 36 37 38 39 40 41 41 42 44 48 50 51 52 52 53 53 53 52 51 50 50 49 49 48 48 46 45 45 45 45 43 41
1 2 0 1 1 1 1 3 4 3 5 4 4 4 6 6 2 5 4 4 2 4 8 8 12 15 17 19 22 25 28 33 37 37 36 35 35 34 34 32 30 28 27 26 23 21 21 21 20 19 17 17 16 14 13 11 12 14 17 20 23 26 28 31 33 34 35 36 37 38 38 38 39 40 43 46 49 50 52 53 54 54 54 53 52 51 50 49 48 48 47 47 47 47 46 44 43
1 4 2 3 2 2 1 3 4 3 6 5 6 7 6 7 3 5 1 0 1 3 6 6 14 18 18 20 24 28 31 34 36 37 36 36 35 35 34 33 32 31 31 30 29 27 26 26 24 23 21 20 19 18 17 16 14 14 14 17 19 22 25 28 30 32 33 35 36 36 37 37 37 37 38 41 44 47 49 52 53 55 55 54 53 51 51 50 49 48 48 48 47 47 46 46 45
3 3 1 1 1 1 1 1 2 4 7 4 8 12 7 5 1 3 1 2 3 6 6 10 12 18 19 20 24 29 33 34 34 33 33 34 34 34 33 33 34 33 32 31 31 30 30 29 27 26 25 22 21 19 17 16 15 15 14 15 17 19 21 24 27 29 31 33 34 35 36 36 36 35 35 37 40 42 46 50 52 54 55 55 54 53 52 51 50 48 47 47 48 48 48 47 47
1 1 3 4 2 1 2 1 1 4 6 1 3 7 8 7 3 1 1 1 1 5 7 11 12 16 18 18 24 30 31 32 33 32 32 32 32 32 32 33 34 34 33 33 33 32 32 31 30 29 28 26 24 22 19 16 14 13 13 14 15 16 18 21 24 26 28 30 31 33 34 34 35 35 35 35 36 37 41 46 50 53 55 56 55 54 53 52 50 48 47 48 48 49 49 49 48
1 1 1 3 3 2 3 3 2 5 5 1 2 3 6 10 6 2 5 3 2 2 8 10 11 15 16 16 22 27 29 30 32 32 33 33 33 34 33 33 34 34 34 34 33 33 33 33 32 31 30 29 27 25 23 19 16 14 12 12 13 15 17 19 22 24 27 29 30 31 32 32 32 33 33 33 33 35 37 41 45 49 53 55 56 55 53 52 50 49 49 48 49 49 50 51 51
5 4 3 4 4 4 5 4 3 6 4 2 2 3 4 9 6 8 12 3 10 13 13 15 16 15 13 15 20 26 29 30 31 32 33 33 34 34 34 34 34 34 34 33 33 33 32 33 33 33 32 31 29 27 25 23 21 18 15 13 13 14 16 18 21 23 25 28 29 30 31 31 31 31 30 30 30 32 34 37 40 44 49 53 54 54 53 52 51 50 50 49 49 50 51 52 52
5 2 2 3 4 4 5 4 6 8 5 1 3 3 3 5 1 3 4 8 17 17 16 17 16 13 11 16 21 25 28 29 29 30 30 31 32 32 33 33 33 33 33 33 33 33 32 32 32 32 32 32 31 29 28 27 24 22 19 17 15 14 15 17 19 21 23 25 27 30 31 32 32 32 31 30 29 29 30 32 36 40 44 48 51 52 52 52 52 51 50 49 49 50 52 52 52
2 2 1 3 3 3 4 5 5 6 6 3 4 3 4 4 4 3 4 13 15 13 14 14 13 11 12 17 20 21 24 27 28 28 28 28 28 29 30 30 31 31 32 32 32 33 33 32 32 31 31 30 30 30 29 29 27 25 22 20 17 16 16 16 18 19 21 24 25 27 29 31 32 32 32 32 31 30 30 30 32 35 38 43 47 50 51 52 52 52 51 51 50 50 51 52 52
2 3 4 2 0 1 4 6 1 1 7 6 5 7 7 7 10 6 8 14 11 9 10 11 11 11 13 16 16 16 19 22 24 25 26 26 26 27 27 27 28 28 29 30 30 31 31 31 31 30 30 29 29 29 28 28 28 27 26 24 21 19 17 17 18 18 19 21 23 25 27 29 30 31 32 33 33 33 32 31 31 32 34 37 41 45 49 51 52 52 52 53 52 51 51 52 52
4 3 3 0 1 0 3 5 1 4 10 7 8 13 12 9 7 3 12 12 7 6 7 8 10 10 12 13 12 13 16 19 21 23 24 24 24 24 24 25 25 26 26 26 26 27 27 28 29 29 30 29 29 28 27 27 28 28 28 27 26 24 21 18 18 18 19 20 22 23 25 27 28 29 30 32 33 33 33 33 33 32 33 34 36 40 44 48 50 52 53 53 53 52 52 53 53
1 1 1 0 3 4 4 4 3 7 9 7 10 15 13 10 10 8 5 9 7 5 5 6 8 9 10 9 9 11 14 16 18 20 21 22 22 23 24 24 24 24 24 24 25 25 25 26 27 28 28 28 26 25 25 25 26 26 27 27 28 27 26 24 21 19 19 20 21 22 24 25 26 27 28 29 31 32 33 34 34 34 34 34 35 36 39 42 46 50 52 53 53 53 53 53 54
0 2 2 1 2 5 4 2 2 6 9 10 11 13 10 8 10 12 3 9 8 4 5 5 6 7 6 6 6 7 9 11 14 16 18 20 22 24 26 26 25 25 25 25 25 25 26 26 26 26 26 26 26 26 25 24 24 25 26 27 27 27 27 27 26 24 22 20 19 21 23 23 24 25 26 27 29 30 31 33 34 35 36 36 36 37 38 40 42 46 49 51 53 54 54 55 55
4 4 5 4 3 2 3 3 3 5 9 10 11 11 9 5 4 2 6 9 6 5 6 4 4 5 4 5 5 6 10 14 17 19 20 21 22 24 26 26 27 27 28 28 28 28 28 28 27 27 27 26 27 27 27 27 26 26 26 27 27 28 28 28 28 28 27 26 23 21 21 22 23 24 23 24 26 28 30 31 33 34 36 37 38 38 39 40 42 44 45 47 50 52 54 56 56
3 5 6 6 5 3 5 8 6 5 7 8 10 11 7 1 3 4 8 7 6 6 7 6 5 5 3 4 7 11 14 17 19 19 20 20 21 21 22 23 24 25 27 28 29 30 30 30 29 28 28 28 28 28 28 28 28 28 28 27 27 28 29 29 29 29 29 29 28 26 24 23 23 23 23 24 24 25 27 29 32 34 35 36 38 39 40 41 43 44 45 46 47 49 52 55 58
Wind_Direction
277 269 268 268 291 293 317 339 293 161 273 275 281 293 208 213 319 293 295 320 297 338 254 258 220 190 193 258 296 310 297 261 277 287 313 342 347 8 190 193 188 194 198 201 203 204 206 208 212 217 218 218 211 202 201 200 200 197 196 195 197 201 204 206 207 211 214 216 213 211 217 226 230 231 231 230 232 231 227 222 219 215 209 210 201 188 194 203 216 225 234 244 250 249 245 246 244
275 268 268 263 290 293 292 337 291 265 272 282 280 266 30 83 265 299 345 358 350 333 296 253 220 212 224 259 284 292 275 247 255 266 277 284 295 303 234 209 194 193 195 200 205 207 208 210 212 216 218 220 215 208 205 205 203 200 199 198 200 202 205 210 213 218 220 222 222 219 222 232 234 229 227 231 235 236 228 217 214 208 200 201 191 189 202 212 224 232 243 250 255 253 250 247 241
274 266 266 264 285 301 290 295 275 291 286 296 342 89 40 262 274 9 357 346 339 311 294 248 224 226 235 252 262 270 276 265 267 267 274 282 282 279 239 212 202 195 197 199 205 209 211 212 213 215 218 218 215 212 210 209 208 204 203 203 206 209 211 214 218 221 221 223 226 224 227 235 232 222 221 227 232 233 224 213 210 201 191 194 197 205 218 227 230 233 242 250 256 258 254 246 245
276 265 254 244 253 272 251 259 277 287 287 299 331 81 139 282 336 352 326 320 319 305 280 234 234 232 237 251 267 265 270 279 287 281 276 285 276 266 237 214 209 200 200 199 204 209 213 214 213 214 217 217 215 215 214 213 213 210 208 210 213 217 220 221 222 221 221 223 226 227 227 230 227 221 221 225 230 231 224 209 206 203 200 204 211 221 233 237 236 237 242 246 251 251 246 245 258
276 265 235 213 237 287 359 278 280 255 283 338 316 26 104 291 317 309 305 306 308 298 251 223 246 240 242 252 256 258 283 297 305 300 284 290 287 271 244 220 214 208 204 200 203 208 213 215 213 215 216 217 216 217 217 217 217 215 215 216 218 221 224 226 227 225 225 225 225 227 224 224 224 220 225 234 238 236 233 224 216 217 221 225 229 237 246 249 246 244 245 248 250 248 247 254 267
257 247 188 177 185 86 212 253 243 250 291 340 291 314 332 303 303 305 304 304 300 282 241 223 249 280 259 252 246 253 288 301 304 304 298 295 292 278 254 229 219 214 210 202 203 207 212 214 215 216 217 218 217 218 218 218 219 219 219 221 222 222 222 224 227 225 219 216 220 222 219 222 225 224 233 243 246 243 241 239 234 234 239 244 248 251 257 260 255 250 251 254 256 256 260 266 273
177 123 123 154 121 159 254 264 268 275 310 252 279 298 310 313 310 305 307 312 297 254 240 223 246 280 267 263 260 270 296 303 301 304 302 296 289 280 262 238 225 219 216 210 206 206 210 212 215 218 219 220 220 220 219 219 219 219 219 219 221 221 221 222 219 214 209 210 215 217 215 223 229 233 243 249 249 248 245 245 244 241 244 250 257 261 262 266 263 259 259 262 264 265 268 272 275
163 135 139 202 159 198 261 265 270 280 272 246 271 274 287 302 306 298 300 304 280 270 251 234 234 265 276 273 268 290 312 315 307 310 308 296 284 273 263 246 231 224 222 219 214 211 211 211 215 219 221 223 224 224 222 222 222 221 221 219 218 216 214 212 207 207 209 210 213 217 221 228 234 239 248 252 252 253 251 250 248 244 242 248 257 262 265 270 272 271 272 273 274 274 274 274 275
158 155 153 224 229 234 259 261 269 264 248 259 265 262 272 288 293 284 281 275 273 272 252 241 218 232 312 287 272 298 316 325 322 319 313 297 282 266 259 248 237 229 228 226 223 219 215 213 214 218 222 225 226 228 226 225 226 225 224 219 213 207 201 200 201 207 211 213 215 223 230 234 239 244 251 255 257 257 255 252 248 245 244 246 253 261 269 276 280 282 283 282 282 279 278 274 274
150 155 146 206 233 253 260 259 261 232 240 260 271 271 276 282 279 268 269 277 280 273 263 246 220 239 293 296 281 300 319 327 329 330 327 306 284 265 255 245 239 232 230 231 229 225 221 218 217 219 222 225 226 228 228 228 229 229 228 219 209 201 198 201 206 211 215 219 224 230 234 238 242 248 255 259 258 257 253 248 244 245 247 248 251 259 267 277 283 285 284 283 278 254 211 193 282
158 138 147 208 232 265 278 280 274 276 267 270 275 272 276 275 264 253 250 276 281 269 266 244 219 239 265 279 277 296 314 317 320 334 336 320 298 270 254 243 238 232 229 231 232 229 225 223 220 222 223 223 225 227 227 229 229 231 231 221 210 204 204 208 213 218 222 225 231 235 237 241 246 251 256 258 252 248 245 241 240 242 245 245 246 249 256 263 264 263 254 229 200 188 206 255 292
200 145 183 243 249 270 296 297 288 300 291 273 269 234 265 240 224 263 256 283 290 271 258 233 236 244 251 260 272 296 308 304 304 319 325 322 308 281 259 245 240 234 231 231 231 230 227 226 224 224 225 224 226 226 226 227 228 229 230 225 217 214 215 218 221 227 230 232 237 242 245 245 249 250 250 248 237 235 233 231 235 237 239 237 235 237 237 232 221 210 200 197 204 217 232 249 273
218 153 211 253 277 284 292 291 291 304 296 269 151 175 248 210 220 292 300 288 283 277 278 243 248 264 268 271 281 293 301 297 299 307 310 311 303 290 273 254 243 237 237 235 231 230 227 226 226 226 226 226 227 227 227 227 227 228 229 227 224 224 225 228 230 233 238 242 245 248 249 246 247 249 245 237 228 229 227 225 227 229 230 227 225 221 210 200 193 190 195 203 209 217 224 236 260
207 179 232 273 136 269 248 278 286 293 304 41 165 230 247 230 238 265 295 297 286 260 288 278 249 254 268 271 284 289 295 301 302 303 304 302 295 289 278 263 250 243 241 240 235 232 229 227 227 227 227 227 227 228 227 227 226 226 228 228 228 228 229 233 236 238 241 245 248 248 246 241 243 247 243 235 228 226 224 221 222 223 221 216 210 200 194 192 192 196 200 205 208 211 217 231 257
198 176 218 231 188 242 215 260 299 274 294 14 239 225 248 262 252 242 279 298 296 276 282 277 236 238 255 251 281 289 291 299 299 300 300 296 290 283 275 267 258 249 245 242 238 236 233 230 228 228 227 227 227 227 228 227 226 225 227 227 228 229 230 234 237 240 242 245 247 247 244 239 239 241 237 234 229 225 223 220 219 217 213 205 197 192 193 195 198 202 203 205 205 209 222 245 266
189 172 202 245 208 235 209 208 226 254 260 149 236 233 258 268 245 246 284 284 284 286 278 256 236 248 259 257 275 287 291 294 294 295 295 292 288 281 273 265 259 254 250 245 241 240 237 234 231 230 230 229 228 228 229 228 227 226 226 227 228 229 231 234 237 240 242 243 245 245 244 239 237 236 232 229 226 224 222 220 217 212 206 198 193 194 196 199 202 204 205 206 210 221 242 264 279
178 181 236 243 216 222 195 193 204 271 288 231 230 227 252 276 265 277 294 276 274 282 274 263 255 259 265 268 278 287 290 291 290 290 289 288 286 280 274 266 261 256 254 251 247 243 239 238 236 234 233 232 232 230 229 229 229 228 227 228 228 229 230 232 235 238 240 242 245 243 241 238 236 233 229 226 223 223 223 220 217 211 204 198 196 198 200 202 205 206 208 211 220 239 260 278 287
182 206 243 241 238 221 195 213 214 271 295 270 244 237 255 281 294 300 298 272 265 275 274 269 266 269 273 276 283 287 288 287 286 287 284 284 282 280 277 271 266 261 258 256 253 248 244 241 239 238 237 236 235 234 232 230 230 229 229 230 229 229 229 229 232 235 238 241 243 241 238 236 234 231 227 224 224 224 224 221 216 211 206 202 201 203 205 208 211 211 212 219 230 249 266 281 289
205 232 243 242 241 205 194 225 224 236 277 289 279 266 262 274 288 294 287 277 271 274 276 270 265 274 281 285 291 289 287 286 284 284 283 282 280 279 278 274 270 265 261 259 258 254 249 246 242 241 241 239 238 238 236 233 231 230 230 231 231 231 229 229 230 232 234 237 239 237 235 234 232 230 226 223 224 225 224 221 215 211 209 207 207 208 211 214 215 215 217 224 234 251 266 278 287
215 222 247 250 239 229 221 234 237 247 272 289 281 276 269 270 277 270 269 283 277 264 270 270 263 277 287 292 297 292 287 286 284 282 282 283 282 279 278 276 273 269 266 263 260 257 253 250 248 245 243 242 240 239 238 235 233 232 231 231 232 231 231 229 230 231 232 233 235 234 233 231 228 228 225 222 222 224 222 219 215 212 210 209 210 212 215 217 219 219 222 228 238 252 263 273 282
182 204 247 259 211 245 239 239 248 256 268 276 275 282 277 272 270 251 254 284 277 260 262 270 277 288 290 290 294 292 289 286 284 282 281 283 284 283 281 279 277 273 268 263 258 256 255 253 251 249 246 244 242 241 240 238 236 234 233 232 232 232 232 231 231 232 232 231 231 231 232 228 225 225 223 221 222 223 222 219 217 214 211 211 211 214 218 219 220 222 225 231 240 251 259 268 280
199 222 247 258 207 255 255 245 256 261 264 269 268 276 280 278 267 247 234 246 270 275 277 279 286 292 291 288 290 291 290 289 287 286 285 286 286 286 284 282 278 274 269 262 258 256 254 252 251 249 247 246 244 243 243 241 239 237 236 235 234 233 233 233 232 233 233 231 230 230 230 226 223 223 222 221 222 223 223 221 218 216 213 212 213 216 217 219 221 222 226 233 240 248 255 265 278
239 238 238 249 237 249 261 253 260 263 257 258 263 276 283 276 272 254 227 232 267 282 286 285 290 294 293 291 290 290 291 291 291 290 290 289 287 286 285 282 278 274 270 264 260 255 251 248 246 246 246 247 245 244 243 243 241 239 238 238 237 236 236 235 234 234 233 232 230 230 229 226 224 222 222 222 222 223 223 221 218 216 214 213 214 216 218 219 221 222 226 232 237 242 248 258 270
241 257 236 247 246 248 259 258 260 263 256 260 270 281 279 266 273 272 234 237 272 286 291 289 292 295 293 292 292 293 295 295 295 296 294 292 290 288 284 279 275 270 264 260 256 251 247 244 244 245 244 245 246 245 243 243 243 241 240 239 239 239 239 238 237 236 235 233 231 230 229 227 225 224 223 223 223 223 222 221 218 215 214 214 215 217 218 219 220 222 225 229 233 237 242 251 263
225 252 253 246 253 256 263 265 264 265 262 268 273 272 272 267 273 279 263 258 275 286 292 293 292 293 293 293 295 297 298 299 300 301 300 299 296 290 282 275 271 268 263 259 258 253 248 244 242 242 242 242 244 244 244 243 243 242 242 241 240 240 240 240 240 239 238 236 233 231 230 229 227 226 225 224 224 224 223 221 218 216 215 215 216 218 219 219 219 221 224 227 230 233 239 247 258
212 246 271 266 268 268 270 268 265 267 265 264 261 262 269 273 279 279 272 268 278 287 291 294 293 293 296 297 299 300 299 300 301 304 302 300 298 291 286 280 275 275 274 268 265 262 257 251 244 241 241 242 243 244 244 243 243 243 242 242 241 241 241 241 241 240 239 238 236 234 232 231 230 228 228 226 226 225 224 222 219 218 218 217 217 219 220 220 221 222 224 226 228 232 237 245 254
252 278 291 278 276 275 272 268 264 265 265 250 238 260 268 275 288 274 268 274 281 287 290 294 294 294 298 298 300 300 298 296 297 297 295 293 292 292 293 290 286 288 287 280 276 271 264 260 253 247 244 243 243 243 244 243 242 242 243 243 242 242 242 242 242 241 240 239 238 236 234 233 232 231 230 229 228 226 225 223 221 220 220 219 218 220 221 222 222 222 224 226 228 231 236 243 251
313 313 295 281 278 278 269 261 259 252 256 242 227 257 269 268 261 256 266 279 281 285 289 291 293 293 295 295 295 294 292 291 292 290 289 289 290 291 292 290 290 291 288 287 285 278 270 266 262 255 248 244 243 243 244 243 241 241 242 242 243 243 243 243 243 242 241 240 239 238 236 234 234 233 231 230 229 228 226 224 223 222 222 222 220 221 222 223 224 224 225 226 228 231 236 243 249
298 301 289 287 285 282 269 256 252 233 232 226 203 252 268 242 223 253 271 281 282 287 287 287 290 290 291 291 290 289 289 290 290 288 288 291 292 293 293 291 291 289 287 286 284 278 274 269 265 260 254 248 244 243 244 244 242 241 241 241 242 243 242 243 242 243 243 242 241 238 236 235 234 234 233 232 231 229 228 226 225 224 224 224 223 223 223 225 225 225 225 226 229 231 236 241 246
282 274 272 294 289 283 267 240 234 214 218 186 175 258 277 258 247 258 276 282 285 289 283 281 284 287 288 288 289 290 291 291 289 289 291 293 295 296 297 297 295 291 288 285 280 277 275 272 268 265 258 252 246 243 243 244 243 242 241 240 241 242 242 243 243 243 243 242 242 240 237 236 235 235 235 233 232 230 229 227 226 225 225 225 225 225 225 226 226 226 227 228 229 231 234 239 242
280 278 224 275 276 278 121 133 157 219 205 169 182 266 271 279 281 277 283 286 291 291 285 282 278 283 286 286 288 290 292 292 292 292 295 298 301 303 304 304 300 295 290 285 281 278 274 270 268 266 261 255 249 245 242 242 242 242 242 241 241 241 241 242 242 242 242 243 243 241 239 237 236 235 235 234 232 232 231 228 227 226 226 226 225 226 226 227 228 228 228 228 229 231 233 237 239
260 273 262 228 240 270 279 174 195 242 210 167 195 267 262 271 285 289 296 294 292 288 289 287 281 282 285 286 287 288 292 295 296 299 302 306 308 309 310 309 306 300 295 289 284 278 272 268 265 263 261 256 252 248 245 243 242 242 242 243 242 241 241 242 242 243 243 243 243 242 241 239 237 236 236 235 233 233 232 230 229 227 226 226 226 227 227 228 229 228 228 228 229 231 233 235 237
217 234 269 262 257 277 292 267 219 222 191 186 214 257 275 273 288 295 295 292 289 287 286 285 284 284 284 286 285 287 291 295 301 305 308 310 314 314 315 315 312 307 304 298 288 279 272 268 265 261 259 257 254 252 248 245 243 242 242 243 244 242 241 241 242 243 243 243 243 243 242 241 239 237 237 236 235 234 233 232 231 229 227 227 227 227 228 229 229 228 228 227 228 231 233 234 235
242 224 250 261 261 273 290 293 256 175 186 221 226 240 261 269 284 291 289 288 285 281 280 281 286 286 287 286 282 284 287 294 304 309 308 312 318 322 325 327 324 318 314 308 295 283 273 269 265 261 260 259 257 254 252 248 245 244 243 243 243 244 243 242 242 242 242 243 242 242 243 242 241 239 237 236 235 235 234 233 232 231 229 228 228 228 229 229 229 229 228 228 228 229 230 231 233
282 278 276 283 261 255 269 276 286 258 250 268 257 246 260 268 273 280 283 285 280 271 273 281 286 284 283 281 280 286 291 297 306 310 312 319 328 335 341 344 340 332 328 321 308 292 278 268 262 259 260 261 260 257 255 252 249 246 245 243 243 243 243 242 242 242 242 242 242 242 242 242 242 240 238 237 236 235 234 234 233 231 229 229 228 228 228 229 228 228 228 227 227 228 229 230 232
290 294 286 288 284 272 270 269 275 290 289 286 278 272 278 279 273 278 283 283 277 271 275 284 283 277 277 280 286 296 300 305 313 318 326 336 345 350 352 352 349 345 343 333 320 308 296 283 270 263 261 263 264 262 259 255 252 249 247 245 242 242 242 242 241 241 242 242 242 242 242 242 242 240 239 237 236 236 235 234 233 231 229 229 228 228 229 229 229 229 228 228 227 227 228 229 229
288 278 270 274 282 279 276 278 284 331 304 277 277 286 292 288 278 274 277 278 277 279 283 277 273 274 281 295 302 303 306 314 324 334 351 3 4 4 359 353 347 346 343 331 323 318 312 303 290 280 274 270 267 266 264 261 257 254 251 249 246 244 243 242 242 241 241 241 241 241 241 241 241 240 239 237 236 236 235 234 233 231 230 229 229 230 231 231 230 230 229 228 226 227 227 227 226
258 259 271 273 269 271 275 285 303 32 312 272 275 288 296 294 281 268 268 273 280 280 273 266 270 285 304 313 307 309 314 323 339 0 17 19 16 15 10 3 351 345 344 330 324 319 314 308 301 295 289 282 276 272 270 268 265 262 259 257 254 250 247 245 244 243 243 242 242 241 241 241 240 240 239 237 236 236 235 234 233 232 231 230 230 230 231 231 231 230 229 227 225 226 228 228 226
257 253 269 272 267 275 273 272 317 65 291 294 301 300 295 282 275 274 272 269 270 267 264 271 287 297 300 304 311 318 325 338 360 16 22 22 23 23 22 25 15 2 350 320 309 306 305 305 302 299 294 290 286 281 277 275 271 268 265 262 259 256 253 251 249 248 247 246 246 245 243 242 241 241 240 237 236 235 235 235 234 233 232 232 231 230 230 230 230 231 230 228 226 225 225 226 226
246 246 263 269 271 283 277 256 27 345 290 298 302 295 281 272 268 274 274 256 259 264 274 287 288 291 297 309 327 337 346 1 9 14 20 22 24 24 24 27 25 19 1 331 316 310 308 307 303 298 293 290 287 284 282 280 275 272 268 265 262 259 257 256 254 253 252 250 249 248 246 245 243 243 242 239 237 236 236 236 235 234 234 233 233 232 231 230 230 230 229 228 227 225 224 224 223
239 229 244 264 274 280 280 291 337 312 285 303 310 294 273 288 296 228 300 266 261 275 321 293 285 301 321 340 358 13 19 21 19 20 25 26 28 29 26 27 29 30 20 3 350 337 330 322 313 304 297 292 288 287 285 281 277 275 271 266 263 260 259 258 256 255 253 252 251 250 248 246 245 244 243 242 239 238 237 237 237 236 235 234 234 233 233 232 232 231 230 228 228 227 227 226 224
264 228 233 259 277 283 284 297 329 308 272 57 349 322 286 223 284 345 349 284 273 320 332 318 341 349 13 25 26 29 27 27 33 37 38 37 36 33 32 32 32 36 36 29 19 6 354 342 329 318 307 301 295 290 286 284 281 278 275 271 268 266 266 265 263 262 261 260 259 257 255 252 250 247 246 244 242 240 239 238 238 237 236 235 235 235 234 233 233 233 232 230 230 229 228 228 227
275 237 232 259 270 277 285 297 312 298 296 29 5 311 287 255 246 262 270 264 281 320 325 1 23 29 48 45 35 29 26 31 42 47 47 43 40 38 37 37 37 39 42 42 37 29 19 7 356 343 329 320 311 300 292 289 286 283 282 280 278 276 275 274 274 273 272 271 268 266 264 261 257 253 250 248 245 242 240 239 239 238 237 236 235 235 235 234 234 234 233 233 232 230 229 229 229
261 118 244 250 267 277 272 285 278 286 314 299 191 228 276 281 232 214 235 259 289 331 344 19 48 55 54 49 45 44 44 46 50 52 51 48 47 45 43 42 42 42 44 46 43 38 35 32 27 20 9 360 344 326 315 306 296 290 288 285 282 280 279 277 277 277 275 275 273 271 269 266 262 257 254 251 247 244 242 240 240 240 239 237 236 236 236 236 235 234 234 233 233 231 230 230 230
304 102 190 123 32 337 216 277 278 288 316 289 182 182 267 290 192 190 251 290 331 18 351 11 73 68 44 45 53 54 55 54 55 56 54 53 52 50 49 47 46 46 46 47 46 43 43 44 44 41 36 29 18 5 355 344 323 306 297 291 286 285 282 279 279 279 278 276 276 274 273 271 268 263 258 255 251 247 244 242 241 240 240 239 238 237 237 237 236 235 234 233 232 231 231 231 231
104 130 125 104 93 65 129 282 293 286 288 265 174 176 261 298 196 181 225 225 49 20 338 4 78 75 48 49 55 54 56 55 57 59 56 55 54 53 53 51 49 48 47 48 48 47 46 47 49 48 47 45 40 32 22 13 358 338 321 307 299 294 289 286 285 283 281 280 279 278 276 274 273 269 265 260 256 251 247 244 242 241 241 240 240 239 238 238 238 236 235 234 233 232 232 231 231
115 155 258 273 170 120 158 268 308 276 272 246 170 182 225 294 207 180 159 117 24 4 342 350 43 65 54 50 53 53 54 53 55 57 57 56 54 53 53 51 49 47 45 46 46 45 45 46 47 46 45 45 44 43 38 29 15 359 343 329 319 309 300 296 293 290 287 286 284 282 280 279 278 276 272 267 262 257 251 247 244 242 241 241 241 240 240 240 239 238 236 235 234 234 233 232 232
144 147 323 306 269 206 199 179 156 255 269 296 139 182 209 244 235 129 3 124 315 331 349 352 19 53 50 45 50 53 55 54 52 52 52 52 50 49 48 46 45 43 42 42 41 41 42 42 42 42 41 39 36 34 33 31 23 8 351 337 327 318 310 304 300 296 292 291 288 285 284 283 282 280 278 274 270 265 258 252 247 244 242 242 241 240 240 240 240 240 239 236 235 234 234 233 233
179 163 276 289 295 274 249 238 208 251 266 68 97 174 219 245 245 244 272 246 165 32 25 28 48 60 52 46 49 53 56 56 53 50 49 47 46 45 44 43 42 41 41 40 39 38 38 38 37 37 38 36 33 30 25 22 17 10 357 341 329 319 311 305 302 299 295 293 291 289 287 287 286 285 283 281 278 274 267 260 254 250 246 244 243 242 241 241 241 241 240 238 236 235 235 234 233
181 187 193 222 260 265 260 257 257 267 275 77 121 181 240 269 261 227 243 269 72 73 62 62 71 71 60 55 55 56 56 56 55 52 49 47 46 44 44 42 41 39 39 38 38 37 35 36 34 34 35 33 31 30 26 21 14 6 356 345 333 320 312 306 301 299 296 295 294 291 290 290 289 289 289 287 284 280 274 269 263 257 252 248 246 244 243 243 243 243 242 240 239 237 237 236 234
185 170 172 218 236 251 263 255 258 274 278 138 143 166 249 290 2 183 223 49 62 74 75 72 72 70 64 60 58 57 56 55 55 53 51 48 46 44 42 40 38 37 35 34 34 33 32 32 30 30 30 28 26 25 25 24 20 12 1 349 336 323 314 308 302 300 298 297 296 294 293 291 290 290 290 289 286 283 279 274 269 263 258 253 249 247 245 244 244 244 244 243 241 239 238 237 235
186 93 166 242 229 216 256 258 256 288 294 239 195 216 251 273 288 247 121 82 77 76 75 74 69 62 60 58 53 52 54 55 55 53 52 49 46 44 41 39 37 34 33 31 29 27 26 27 27 27 27 26 23 21 20 21 20 19 14 3 349 332 318 309 304 301 299 297 295 294 293 293 292 291 290 288 287 284 281 277 273 269 264 259 254 250 247 246 245 245 245 244 243 241 240 238 237
136 163 200 221 224 192 261 267 225 279 276 257 242 259 265 273 276 250 124 98 87 76 71 72 65 57 57 54 48 47 51 54 54 52 51 49 45 43 41 39 37 33 31 29 26 25 24 24 24 23 22 22 20 18 16 15 15 15 15 13 6 353 335 318 306 299 297 295 293 293 292 292 293 293 292 290 288 286 283 279 276 272 268 263 258 254 250 248 246 246 246 246 245 244 242 240 238
146 191 218 126 38 149 255 264 232 235 254 252 246 260 270 277 278 160 119 107 91 82 80 73 65 60 60 56 48 46 50 53 56 54 52 50 46 43 40 38 36 34 32 30 27 25 23 21 20 18 17 16 16 14 13 12 11 10 11 12 11 8 359 344 323 305 295 290 289 291 292 292 292 293 293 292 290 287 284 281 278 275 272 268 263 259 254 251 249 247 246 246 247 245 243 241 239
199 284 325 317 247 240 220 222 232 241 252 252 240 250 259 256 259 255 172 124 113 104 92 82 71 64 64 63 54 50 52 52 54 54 52 50 47 44 41 38 36 34 32 31 29 25 22 20 18 16 16 16 15 13 12 10 9 9 10 10 10 11 9 5 354 336 316 300 291 287 288 290 291 291 291 291 290 288 286 284 280 276 273 270 267 263 258 255 252 250 249 247 246 245 244 242 240
151 297 277 253 262 260 241 222 229 241 253 261 252 250 248 239 257 271 238 118 126 133 104 85 74 71 71 72 65 55 54 51 49 50 48 46 44 41 38 35 33 30 29 28 26 24 23 21 18 16 14 12 11 12 13 13 11 10 10 9 9 9 8 8 7 1 352 337 317 300 291 288 288 288 289 289 289 289 288 286 284 280 276 272 269 265 261 258 255 253 252 250 248 246 244 243 241
190 220 224 213 220 263 279 258 223 242 259 263 261 257 246 245 296 308 116 115 127 127 112 105 90 84 74 65 63 58 55 52 49 46 42 40 37 33 31 28 25 23 21 20 19 19 19 18 17 15 12 10 9 9 9 10 10 10 8 7 7 6 5 5 4 4 3 360 352 336 317 302 293 289 287 286 287 287 287 287 285 282 280 276 272 268 265 261 257 254 253 252 251 249 246 244 242
223 230 229 231 235 250 272 255 223 227 251 252 261 262 244 250 13 78 115 119 120 121 122 123 112 100 90 70 61 57 54 50 46 41 36 32 28 24 21 17 13 11 9 8 8 8 8 10 10 10 9 9 8 7 5 4 3 3 3 3 3 1 1 0 0 1 1 0 359 356 347 332 316 303 293 287 284 283 283 284 283 282 280 278 275 272 268 265 261 258 255 254 253 251 249 246 244